Home   Weather   Colón   Past weeks

Flag for Panama Past Weather in Colón, Panama — Yesterday and Last 2 Weeks

Now
70 °F

Clear.


Feels Like: 70 °F
Forecast: 73 / 84 °F
Wind: No wind

Location: Panama Airport

Current Time: Jan 21, 2017 at 3:48:58 am

Latest Report: Jan 21, 2017 at 2:00 am


Visibility: 10 mi

Pressure: 29.95 "Hg

Humidity: 94%

Dew Point: 68 °F

Location of ColónLocation

Past Weather in Colón — Graph

°F

Colón Temperature Yesterday

Maximum temperature yesterday: 90 °F (at 3:00 pm)
Minimum temperature yesterday: 66 °F (at 6:00 am)
Average temperature yesterday: 78 °F

High & Low Weather Summary for the Past Weeks

 TemperatureHumidityPressure
High91 °F (Jan 7, 12:00 pm)100% (Jan 6, 2:00 am)29.98 "Hg (Jan 6, 2:00 am)
Low66 °F (Jan 19, 2:00 am)43% (Jan 15, 1:00 pm)29.80 "Hg (Jan 6, 4:00 pm)
Average79 °F77%29.89 "Hg
* Reported Jan 6 2:00 am — Jan 21 2:00 am, Colón, Weather by CustomWeather, © 2017

Note: Actual official high and low records may vary slightly from our data, if they occured in-between our weather recording intervals... More about our weather records

Advertising

Colón Weather History for the Previous 24 Hours

Scroll right to see more
 ConditionsComfort  
Time TempWeatherWind HumidityBarometerVisibility
2:00 am
Sat, Jan 21
70 °FClear.No wind94%29.95 "Hg10 mi
12:00 am68 °FClear.No wind100%29.98 "Hg10 mi
11:00 pm
Fri, Jan 20
73 °FClear.3 mph94%29.98 "Hg10 mi
10:00 pm73 °FPassing clouds.No wind94%29.98 "HgN/A
9:00 pm75 °FPassing clouds.5 mph83%29.95 "HgN/A
8:00 pm79 °FPassing clouds.8 mph74%29.92 "HgN/A
7:00 pm81 °FPassing clouds.6 mph70%29.89 "HgN/A
6:00 pm82 °FScattered clouds.6 mph70%29.83 "HgN/A
5:00 pm86 °FScattered clouds.7 mph59%29.86 "HgN/A
4:00 pm86 °FScattered clouds.7 mph62%29.86 "HgN/A
3:00 pm90 °FScattered clouds.6 mph55%29.86 "HgN/A
2:00 pm88 °FScattered clouds.6 mph59%29.89 "HgN/A
1:00 pm88 °FScattered clouds.7 mph59%29.92 "HgN/A
12:00 pm86 °FScattered clouds.8 mph66%29.92 "HgN/A
11:00 am86 °FScattered clouds.2 mph62%29.95 "HgN/A
10:00 am84 °FPassing clouds.3 mph70%29.95 "Hg6 mi
9:00 am81 °FPassing clouds.No wind79%29.95 "Hg6 mi
8:00 am73 °FPassing clouds.No wind94%29.92 "Hg6 mi
7:00 am70 °FPassing clouds.No wind94%29.89 "Hg6 mi
6:00 am66 °FPassing clouds.No wind94%29.89 "HgN/A
5:00 am68 °FPassing clouds.No wind94%29.89 "HgN/A
4:00 am68 °FPassing clouds.No wind94%29.89 "HgN/A
3:00 am70 °FPassing clouds.No wind94%29.92 "HgN/A
Weather by CustomWeather, © 2017

See weather overviewHow to use our weather pages